Regional Weather Roundup
Issued by NWS

Home | Current Version | Previous Version | Graphics & Text | Print | Product List | Glossary Off
Versions: 1 2 3 4 5 6 7 8 9 10 11 12 13 14 15 16 17 18 19 20 21 22 23 24 25 26 27 28 29 30 31 32 33 34 35 36 37 38 39 40 41 42 43 44 45 46 47 48 49 50

000
ASUS43 KDMX 251007
RWRIA

WEATHER ROUNDUP FOR IOWA
NATIONAL WEATHER SERVICE DES MOINES IA
400 AM CST TUE NOV 25 2014

NOTE: "FAIR" INDICATES FEW OR NO CLOUDS BELOW 12,000 FEET WITH NO
SIGNIFICANT WEATHER AND/OR OBSTRUCTIONS TO VISIBILITY.

* - THESE STATIONS ARE NOT NWS STATIONS...THUS NOT UNDER NWS
QUALITY CONTROL.  THEY ALSO DO NOT REPORT WEATHER SUCH
AS PRECIPITATION OR FOG.

IAZ001>003-012>014-020>022-031>034-043>046-251100-
   NORTHWEST IOWA

CITY           SKY/WX    TMP DP  RH WIND       PRES   REMARKS
CARROLL *      CLEAR     18   9  68 NW13      30.07S WCI   4
CHEROKEE *     CLEAR     16   9  73 CALM      30.09R
DENISON *      CLEAR     18   7  62 W5        30.08S WCI  11
LE MARS *      CLEAR     14   7  73 W5        30.11S WCI   6
ORANGE CITY *  CLEAR     10   7  85 W8        30.07S WCI  -1
SHELDON *      CLEAR     12   5  73 W8        30.06S WCI   1
SIOUX CITY     CLEAR     16   6  65 NW7       30.12S WCI   6
SPENCER        CLEAR     12   6  77 NW9       30.05S WCI   0
STORM LAKE *   CLEAR     14   7  73 W6        30.06S WCI   5
$$

IAZ055>058-069>071-079>083-090>094-251100-
   SOUTHWEST IOWA

CITY           SKY/WX    TMP DP  RH WIND       PRES   REMARKS
ATLANTIC *     CLEAR     19   9  63 NW9       30.10S WCI   9
AUDUBON *      CLEAR     18   7  62 W5        30.08S WCI  11
CLARINDA *     CLEAR     19  10  68 NW3       30.15S
COUNCIL BLFS * CLEAR     19   7  58 NW9       30.11S WCI   9
CRESTON *      CLEAR     18  10  73 NW10      30.09R WCI   6
HARLAN  *      CLEAR     18   9  68 CALM      30.14R
LAMONI         CLEAR     19  13  77 NW7       30.09R WCI  10
RED OAK *      CLEAR     19  10  68 NW8       30.12S WCI   9
SHENANDOAH *   CLEAR     21   9  58 SW3       30.15R
$$

IAZ047>049-059>061-072>074-084-251100-
   CENTRAL IOWA

CITY           SKY/WX    TMP DP  RH WIND       PRES   REMARKS
AMES           CLEAR     18  12  77 NW10      30.06R WCI   6
ANKENY *       CLEAR     19  14  79 NW12      30.07R WCI   7
CHARITON *     CLEAR     21  14  73 NW12      30.07S WCI   9
DES MOINES     CLEAR     21  13  71 NW13      30.08R WCI   9
GRINNELL*      CLOUDY    21  16  79 NW16      30.04S WCI   7
KNOXVILLE *    CLEAR     21  14  73 NW12      30.06R WCI   9
MARSHALLTOWN   CLOUDY    18  13  80 NW18      30.04R WCI   2
PELLA *        PTCLDY    21  16  79 NW9       30.08R WCI  11
PERRY *          N/A     19  14  79 NW8       30.08R WCI   9
$$

IAZ004>006-015-016-023>025-035-036-251100-
   NORTH CENTRAL IOWA

CITY           SKY/WX    TMP DP  RH WIND       PRES   REMARKS
ALGONA *       CLEAR     16  10  79 NW9       30.05R WCI   4
CLARION *      CLEAR     14  10  85 NW10      30.04R WCI   1
ESTHERVILLE    CLEAR     13   7  77 W13       30.03R WCI  -2
FORT DODGE *   CLEAR     16   9  73 W7        30.06R WCI   6
MASON CITY     CLEAR     12   8  84 NW13      30.02R WCI  -3
FOREST CITY *  CLEAR     14  12  92 NW5       30.01S WCI   6
IOWA FALLS *     N/A     16  12  86 NW12      30.04R WCI   3
$$

IAZ007>011-017>019-026>030-037>042-050>054-066-251100-
   NORTHEAST IOWA

CITY           SKY/WX    TMP DP  RH WIND       PRES   REMARKS
CEDAR RAPIDS   MOCLDY    15  10  80 NW13      30.02R WCI   1
CHARLES CITY * CLOUDY    12   7  79 NW10      30.01R WCI  -1
CLINTON *      CLOUDY    18  10  73 W15G22    30.00R WCI   3
DECORAH *      CLOUDY    16  10  79 NW9       29.95R WCI   4
DUBUQUE        PTCLDY    15  11  83 W10       29.95R WCI   2
MONTICELLO *   CLOUDY    18  12  79 W15       29.99R WCI   3
OELWEIN *      FLURRIES  14  10  85 NW16      30.00R WCI  -2
WATERLOO       CLOUDY    15  10  80 NW10      30.02R WCI   2
$$

IAZ064-065-067-068-078-251100-
   EAST CENTRAL IOWA

CITY           SKY/WX    TMP DP  RH WIND       PRES   REMARKS
DAVENPORT      CLOUDY    18  11  74 NW18      30.01R WCI   2
MT. PLEASANT * CLOUDY    23  18  80 NW10      30.06R WCI  12
MUSCATINE *    MOCLDY    19  12  73 NW12      30.06R WCI   7
QUAD CITIES    CLOUDY    20  12  71 NW17G23   30.02R WCI   5
$$

IAZ062-063-075>077-085>089-095>099-251100-
   SOUTHEAST IOWA

CITY           SKY/WX    TMP DP  RH WIND       PRES   REMARKS
BURLINGTON     CLOUDY    24  19  81 NW13      30.04R WCI  12
FAIRFIELD *    CLOUDY    25  18  74 NW16      30.05R WCI  12
FORT MADISON * CLOUDY    27  21  80 W9        30.05S WCI  17
KEOKUK *       CLOUDY    27  21  80 W8        30.05R WCI  18
OSKALOOSA *    CLOUDY    23  18  80 NW13      30.05S WCI  11
CENTERVILLE *  CLEAR     21  18  86 W9        30.08R WCI  11
OTTUMWA        CLOUDY    23  15  71 NW15G22   30.05R WCI  10
WASHINGTON *   CLOUDY    21  18  86 NW15G23   30.05R WCI   8
$$

ABBREVIATIONS USED IN REMARKS
   TC - TEMPERATURES IN CELSIUS
  WCI - WIND CHILL INDEX
   HX - HEAT INDEX
  VSB - VISIBILITY
$$




USA.gov is the U.S. government's official web portal to all federal, state and local government web resources and services.